Weather Service Report


303 
ASUS41 KPHI 230210
RWRPHI

REGIONAL WEATHER ROUNDUP
NATIONAL WEATHER SERVICE MOUNT HOLLY NJ
900 PM EST SAT NOV 22 2014

NOTE:  "FAIR" INDICATES FEW OR NO CLOUDS BELOW 12,000 FEET WITH NO
SIGNIFICANT WEATHER AND/OR OBSTRUCTIONS TO VISIBILITY.

 * = STATION DOES NOT REPORT PRECIPITATION (E.G. RAIN, SNOW, ETC.) 
        OR FOG.

NJZ015>026-230300-
SOUTHERN NEW JERSEY
  
CITY           SKY/WX    TMP DP  RH WIND       PRES   REMARKS
POMONA         CLOUDY    42  24  49 SW8       30.30F                  
RIO GRANDE*    PTCLDY    41  23  48 S9        30.30F                  
MILLVILLE      PTCLDY    40  25  55 SW5       30.29F                  
WRIGHTSTOWN    CLOUDY    41  23  47 SW9       30.24F                  
MOUNT HOLLY    CLOUDY    43  23  45 SW8       30.27F                  
TRENTON        CLOUDY    43  19  38 SW9       30.25F                  

$$
NJZ001>014-230300-
NORTHERN NEW JERSEY
  
CITY           SKY/WX    TMP DP  RH WIND       PRES   REMARKS
SUSSEX         CLOUDY    39  17  41 SW8       30.19S WCI  33          
ANDOVER*         N/A     38  19  46 VRB6      30.20F WCI  33          
MORRISTOWN     MOCLDY    41  18  38 SW10G18   30.22F                  
NEWARK         CLOUDY    42  19  39 SW13      30.23S                  
TETERBORO      MOCLDY    43  17  35 SW9       30.22S                  
CALDWELL       MOCLDY    41  17  38 VRB6      30.22F                  
SOMERVILLE     MOCLDY    41  19  41 CALM      30.22F                  
ALLAIRE*       MOCLDY    41  19  42 SW13      30.25S                  
TOMS RIVER*    CLOUDY    43  21  42 SW6       30.28F                  

$$
PAZ043-044-047-054-055-060>062-066>071-230300-
EASTERN PENNSYLVANIA
  
CITY           SKY/WX    TMP DP  RH WIND       PRES   REMARKS
PHILADELPHIA   MOCLDY    43  23  45 SW12      30.28F                  
NORTH PHILA    CLOUDY    45  19  35 SW9       30.28F                  
BLUE BELL      CLOUDY    43  23  45 SW6       30.25F                  
DOYLESTOWN     MOCLDY    40  19  43 SW7       30.23F                  
QUAKERTOWN*    MOCLDY    39  21  48 SW7       30.23F WCI  34          
POTTSTOWN      CLOUDY    40  20  44 S3        30.25F                  
LANCASTER      CLOUDY    35  24  64 CALM      30.24F                  
COATESVILLE    CLOUDY    39  23  52 S5        30.24F                  
READING        MOCLDY    41  21  44 CALM      30.23F                  
ALLENTOWN      CLOUDY    41  19  41 W6        30.23F                  
MOUNT POCONO   CLOUDY    36  15  42 W14       30.14F WCI  27          
HAZLETON       CLOUDY    39  18  41 S5        30.18F                  
WILKES BARRE   CLOUDY    38  18  44 SW6       30.17S WCI  33          

$$
DEZALL-MDZ008-012-015-019-020-230300-
DELAWARE AND EASTERN MARYLAND
  
CITY           SKY/WX    TMP DP  RH WIND       PRES   REMARKS
WILMINGTON     PTCLDY    41  21  44 S8        30.28F                  
DOVER          MOCLDY    35  25  65 S9        30.27F WCI  28          
GEORGETOWN     CLEAR     36  24  62 S5        30.32F WCI  32          
PATUXENT       CLEAR     41  19  41 SW3       30.31S                  
OCEAN CITY     CLEAR     41  27  57 SW9       30.33S                  
WALLOPS ISLAND CLEAR     42  24  49 SW10      30.34F                  
CAMBRIDGE      CLEAR     36  27  69 S3        30.31S                  
SALISBURY      CLEAR     36  24  62 S6        30.33S WCI  31          

$$
PAZ001-021-NYZ056-072-MDZ011-DCZ001-230300-
OTHER NEARBY LOCATIONS
  
CITY           SKY/WX    TMP DP  RH WIND       PRES   REMARKS
HARRISBURG     MOCLDY    30  21  69 E3        30.22F                  
STATE COLLEGE  CLOUDY    36  27  69 W8        30.14F WCI  29          
WILLIAMSPORT   CLOUDY    33  27  78 SW5       30.18F WCI  29          
BINGHAMTON     LGT RAIN  36  31  82 SW15      30.06S WCI  27          
NEW YORK CITY  MOCLDY    43  18  36 MISG      30.24S                  
BALTIMORE      MOCLDY    40  17  39 CALM      30.27S                  
WASHINGTON DC  MOCLDY    44  24  45 S9        30.29F                  

$$

Return to Home page


Western Regional Climate Center, wrcc@dri.edu